Location: Klickitat County Star Party
(45.8642°N, 120.6771°W)
Time: 16:02:19
(UTC-07:00)

SO-50 - Pass Details

Date: 31 May 2019
Orbit: 586 x 700 km, 64.6° (Epoch: 18 June)

Event Time Altitude Azimuth Distance (km) Brightness Sun altitude
Rises 23:45:31 0° 328° (NNW) 3,091 ? -20.0°
Reaches altitude 10° 23:48:18 10° 342° (NNW) 2,164 ? -20.2°
Maximum altitude 23:52:19 24° 37° (NE) 1,410 ? -20.4°
Drops below altitude 10° 23:56:15 10° 91° (E) 2,119 ? -20.6°
Enters shadow 23:56:26 - 92° (E) 2,174 ? -20.6°
